Regional Weather Roundup
Issued by NWS

Home | Current Version | Previous Version | Text Only | Print | Product List | Glossary Off
Versions: 1 2 3 4 5 6 7 8 9 10 11 12 13 14 15 16 17 18 19 20 21 22 23 24 25 26 27 28 29 30 31 32 33 34 35 36 37 38 39 40 41 42 43 44 45 46 47 48 49 50

000
ASUS43 KMPX 190601
RWRMN
WEATHER ROUNDUP FOR MINNESOTA
NATIONAL WEATHER SERVICE TWIN CITIES/CHANHASSEN MN
100 AM CDT TUE SEP 19 2017


NOTE: "FAIR" INDICATES FEW OR NO CLOUDS BELOW 12,000 FEET WITH NO
SIGNIFICANT WEATHER AND/OR OBSTRUCTIONS TO VISIBILITY. N/A MEANS
CURRENT SKY AND/OR WEATHER CONDITIONS ARE NOT AVAILABLE.

MNZ060>063-068>070-190700-
   Twin Cities Metro

CITY           SKY/WX    TMP DP  RH WIND       PRES   REMARKS
TWIN CITIES    CLOUDY    59  57  93 SE7       29.94F
6HR MIN TEMP:  57; 6HR MAX TEMP:  59;

ST PAUL        CLOUDY    59  57  93 SE7       29.95F
CRYSTAL        CLOUDY    59  53  80 SE6       29.93F
BLAINE         CLOUDY    61  57  88 SE6       29.94F
LAKEVILLE      CLOUDY    55  55 100 CALM      29.94F
EDEN PRAIRIE   CLOUDY    59  56  89 E6        29.93F
6HR MIN TEMP:  57; 6HR MAX TEMP:  59; 6HR PCP: TRACE;

SOUTH ST PAUL  CLOUDY    58  57  97 CALM      29.95S
LAKE ELMO      CLOUDY    57  55  94 CALM      29.97F
$$
MNZ001>005-007-008-013>017-022>024-027-028-190700-
   Northwest Minnesota

CITY           SKY/WX    TMP DP  RH WIND       PRES   REMARKS
BEMIDJI        CLOUDY    55  53  95 S6        29.92R
HALLOCK        PTCLDY    57  55  94 SE9       29.84S
ROSEAU         CLOUDY    57  54  88 SE6       29.88F
WARROAD        CLOUDY    55  52  88 CALM      29.90R
CROOKSTON      CLOUDY    59  55  88 SE9       29.85S
FOSSTON        CLOUDY    55  54  94 SE7       29.88F
DETROIT LAKES  CLOUDY    55  55 100 S13       29.89S
MOORHEAD       CLOUDY    61  57  88 SE9       29.85S
PARK RAPIDS    CLOUDY    55  53  93 SE10      29.91S
MAHNOMEN       CLOUDY    57  55  93 SE10      29.87F
$$
MNZ006-009>011-018-025>026-190700-
   North Central Minnesota

CITY           SKY/WX    TMP DP  RH WIND       PRES   REMARKS
BAUDETTE       CLOUDY    54  54 100 SE7       29.92R
FLAG ISLAND    MOCLDY    57  54  88 SE10      29.89S
INTL FALLS     CLOUDY    55  51  86 SE6       29.94S
6HR MIN TEMP:  53; 6HR MAX TEMP:  57;

WASKISH        CLOUDY    55  54  94 SE3       29.92S FOG
BIG FORK       CLOUDY    55  52  88 SE5       29.95R
LONGVILLE      CLOUDY    54  52  94 SE7       29.93S
GRAND RAPIDS   CLOUDY    53  50  89 SE7       29.96F
CRANE LAKE     CLOUDY    54  52  94 S3        29.98S
ORR            CLOUDY    54  46  76 SE5       29.94S
COOK           CLOUDY    54  50  87 CALM      29.97S
WALKER         CLOUDY    54  52  92 S8        29.92S
$$
MNZ012-019>021-037-190700-
   Northeast Minnesota

CITY           SKY/WX    TMP DP  RH WIND       PRES   REMARKS
DULUTH         CLOUDY    54  52  93 SE7       29.98F
6HR MIN TEMP:  53; 6HR MAX TEMP:  55;

ELY            CLOUDY    54  48  82 S5        29.99S
HIBBING        CLOUDY    51  48  89 SE6       29.97S
EVELETH        CLOUDY    54  50  87 SE6       29.99S
DULUTH HARBOR  CLOUDY    59  54  82 SE5       29.98F
SILVER BAY     CLOUDY    55  54  94 CALM      29.99F
GRAND MARAIS     N/A     57  55  93 CALM      30.03F
$$
MNZ029>031-032-039>041-046>048-054>057-064-190700-
   West Central Minnesota

CITY           SKY/WX    TMP DP  RH WIND       PRES   REMARKS
FERGUS FALLS   CLOUDY    59  59 100 S16       29.87S
WHEATON        CLOUDY    61  57  88 SE9       29.86F
MORRIS         CLOUDY    61  59  94 SE9       29.87S FOG
ALEXANDRIA     FOG       56  56 100 SE8       29.92R VSB 1/2
ELBOW LAKE     CLOUDY    58  58 100 E10       29.88S FOG
WADENA         CLOUDY    54  54 100 SE8       29.90S FOG
GLENWOOD       FOG       57  55  94 SE8       29.91R VSB 1/4
APPLETON       CLOUDY    63  61  94 SE7       29.86S FOG
BENSON         FOG       61  59  94 S10       29.89F VSB 3/4
ORTONVILLE     CLOUDY    63  59  88 NE8       29.85S FOG
MADISON        FOG       64  64 100 SE9       29.86S VSB 1
WILLMAR        FOG       61  61 100 SE8       29.90F VSB 1
$$
MNZ033>034-036-042>043-049>051-058-059-190700-
   Central Minnesota

CITY           SKY/WX    TMP DP  RH WIND       PRES   REMARKS
ST CLOUD       CLOUDY    55  55 100 E3        29.93F FOG
6HR MIN TEMP:  54; 6HR MAX TEMP:  55;

PAYNESVILLE    FOG       57  57 100 SE8       29.92S VSB 3/4
AITKIN         CLOUDY    52  50  93 SE5       29.94S
PINE RIVER     CLOUDY    52  48  87 SE9       29.96S
BRAINERD       CLOUDY    53  53 100 SE5       29.94F
STAPLES        CLOUDY    54  54 100 SE8       29.92S FOG
LONG PRAIRIE   SNOW      54  54 100 E3        29.92S VSB 1/2
LITTLE FALLS   CLOUDY    54  50  87 SE5       29.93F FOG
LITCHFIELD     FOG       61  61 100 SE6       29.92F VSB 3/4
BUFFALO        CLOUDY    57  55  93 E3        29.94F
MAPLE LAKE     CLOUDY    58  58  98 SE5       29.93F FOG
HUTCHINSON     CLOUDY    60  60  99 E7        29.92F FOG
$$
MNZ037-044-045-052-053-190700-
   East Central Minnesota

CITY           SKY/WX    TMP DP  RH WIND       PRES   REMARKS
PRINCETON      CLOUDY    57  55  94 E5        29.94F
MORA           CLOUDY    54  52  94 CALM      29.97F
RUSH CITY      CLOUDY    56  53  91 CALM      29.95F
MOOSE LAKE     CLOUDY    54  52  94 CALM      29.96S FOG
HINCKLEY       CLOUDY    54  54 100 CALM      29.96F
CLOQUET        CLOUDY    54  48  82 CALM      29.98S
MCGREGOR       CLOUDY    52  52 100 CALM      29.96F
$$
MNZ071>073-080-081-089-090-097-098-190700-
   Southwest Minnesota

CITY           SKY/WX    TMP DP  RH WIND       PRES   REMARKS
MONTEVIDEO     CLOUDY    63  63 100 S8        29.87S FOG
GRANITE FALLS  CLOUDY    64  63  97 SE8       29.89S FOG
CANBY          CLOUDY    64  63  97 E8        29.87S FOG
MARSHALL       FOG       63  63 100 SE8       29.86F VSB 3/4
REDWOOD FALLS  CLOUDY    63  61  93 SE9       29.88F FOG
OLIVIA         FOG       59  59 100 SE7       29.88F VSB 1/2
PIPESTONE      FOG       64  63  94 S6        29.87S VSB 1/2
WORTHINGTON    FOG       63  63 100 SE8       29.90F VSB 3/4
JACKSON        CLOUDY    63  63 100 CALM      29.91F FOG
TRACY          CLOUDY    65  65 100 S6        29.88F FOG
SLAYTON        CLOUDY    64  63  95 SE8       29.89F FOG
$$
MNZ065>067-074>077-082>085-091>093-190700-
   South Central Minnesota

CITY           SKY/WX    TMP DP  RH WIND       PRES   REMARKS
MANKATO        CLOUDY    61  59  93 SE8       29.93S
NEW ULM        CLOUDY    61  61 100 S7        29.91F FOG
ST JAMES       CLOUDY    63  63 100 SE5       29.92F FOG
FAIRMONT       CLOUDY    61  60  97 E3        29.92F FOG
GLENCOE        CLOUDY    60  60 100 E6        29.92S
FARIBAULT      CLOUDY    61  59  94 E3        29.94F
OWATONNA       MOCLDY    61  57  88 SE3       29.94S
WASECA         CLOUDY    59  59 100 SE3       29.94F
ALBERT LEA     CLOUDY    63  63 100 SE3       29.94F
$$
MNZ078>079-086>088-094>096-190700-
   Southeast Minnesota

CITY           SKY/WX    TMP DP  RH WIND       PRES   REMARKS
ROCHESTER      MOCLDY    57  56  96 SE5       29.96F
6HR MIN TEMP:  56; 6HR MAX TEMP:  57; 6HR PCP:  0.05;

RED WING       CLOUDY    59  55  88 E3        29.94F
STANTON        CLOUDY    59  56  90 CALM      29.93F
DODGE CENTER   CLOUDY    57  57 100 SE5       29.95F
WINONA         CLOUDY    59  57  94 CALM      29.97S
AUSTIN         CLOUDY    61  57  88 CALM      29.94F
PRESTON        CLOUDY    56  55  95 E5        29.97F
$$
ABBREVIATIONS USED IN REMARKS
   TC - TEMPERATURES IN CELSIUS
  WCI - WIND CHILL INDEX
   HX - HEAT INDEX
  VSB - VISIBILITY
$$




USA.gov is the U.S. government's official web portal to all federal, state and local government web resources and services.